AAL933 KMIA-SAEZ

Flight info

Callsign AAL933
Flight time N/A
Altitude 33000
Route GWAVA2 URSUS UL780 LEPEG/N0483F350 UL780 DALUD/N0481F370 UL780 ISREN UM542 ILMAR UL302 ELASA/N0471F390 UL650 GEKAL UT691 LAR UW16 CBA UW24 SNT SNT7U
Aircraft B772/H-SDE2E3FGHIJ5LORVWXY/LB1D1

Departure

Time 2026-05-05 22:25
Airport Miami International Airport (KMIA)

Arrival

Time N/A
Airport Ezeiza International Airport - Ministro Pistarini (SAEZ)
Time Latitude Longitude Altitude Speed Heading
2026-05-05 21:51 25.79431 -80.28172 25 ft 0 kts 27°
2026-05-05 21:54 25.79445 -80.28164 28 ft 0 kts 27°
2026-05-05 22:12 25.79444 -80.28164 25 ft 2 kts 27°
2026-05-05 22:12 25.79430 -80.28172 30 ft 2 kts 28°
2026-05-05 22:13 25.79415 -80.28179 28 ft 2 kts 360°
2026-05-05 22:13 25.79399 -80.28176 28 ft 2 kts 325°
2026-05-05 22:13 25.79387 -80.28163 30 ft 2 kts 288°
2026-05-05 22:13 25.79383 -80.28159 30 ft 2 kts 252°
2026-05-05 22:17 25.79382 -80.28165 30 ft 3 kts 252°
2026-05-05 22:17 25.79370 -80.28203 26 ft 8 kts 250°
2026-05-05 22:18 25.79333 -80.28270 28 ft 12 kts 229°
2026-05-05 22:18 25.79265 -80.28349 28 ft 15 kts 224°
2026-05-05 22:18 25.79172 -80.28407 24 ft 10 kts 200°
2026-05-05 22:18 25.79160 -80.28435 23 ft 6 kts 262°
2026-05-05 22:19 25.79174 -80.28497 22 ft 11 kts 294°
2026-05-05 22:19 25.79215 -80.28585 20 ft 14 kts 298°
2026-05-05 22:19 25.79270 -80.28694 18 ft 19 kts 299°
2026-05-05 22:19 25.79340 -80.28830 18 ft 21 kts 300°
2026-05-05 22:20 25.79414 -80.28975 20 ft 22 kts 299°
2026-05-05 22:20 25.79495 -80.29131 21 ft 24 kts 300°
2026-05-05 22:20 25.79579 -80.29296 27 ft 25 kts 300°
2026-05-05 22:20 25.79668 -80.29469 21 ft 27 kts 300°
2026-05-05 22:21 25.79761 -80.29653 18 ft 27 kts 299°
2026-05-05 22:21 25.79838 -80.29805 16 ft 22 kts 299°
2026-05-05 22:21 25.79900 -80.29942 17 ft 13 kts 286°
2026-05-05 22:21 25.79902 -80.29949 17 ft 0 kts 286°
2026-05-05 22:22 25.79902 -80.29952 17 ft 1 kts 286°
2026-05-05 22:22 25.79909 -80.29976 17 ft 6 kts 289°
2026-05-05 22:22 25.79941 -80.30032 17 ft 12 kts 308°
2026-05-05 22:23 25.79998 -80.30111 20 ft 11 kts 322°
2026-05-05 22:23 25.80059 -80.30114 19 ft 5 kts 35°
2026-05-05 22:23 25.80073 -80.30063 18 ft 6 kts 86°
2026-05-05 22:24 25.80073 -80.30062 18 ft 1 kts 86°
2026-05-05 22:24 25.80076 -80.30024 17 ft 10 kts 86°
2026-05-05 22:24 25.80091 -80.29661 19 ft 92 kts 88°
2026-05-05 22:25 25.80134 -80.28636 77 ft 166 kts 87°
2026-05-05 22:25 25.80196 -80.27275 807 ft 184 kts 88°
2026-05-05 22:25 25.80202 -80.25840 1697 ft 189 kts 90°
2026-05-05 22:25 25.79969 -80.24388 2087 ft 200 kts 115°
2026-05-05 22:26 25.78912 -80.23272 2201 ft 225 kts 149°
2026-05-05 22:26 25.77524 -80.22377 2367 ft 244 kts 144°
2026-05-05 22:26 25.76092 -80.21238 2750 ft 257 kts 141°
2026-05-05 22:26 25.74652 -80.20010 3268 ft 264 kts 146°
2026-05-05 22:27 25.72912 -80.19271 3703 ft 273 kts 168°
2026-05-05 22:27 25.71016 -80.19046 4407 ft 273 kts 179°
2026-05-05 22:27 25.69110 -80.18987 5089 ft 275 kts 181°
2026-05-05 22:27 25.67197 -80.18994 5712 ft 275 kts 187°
2026-05-05 22:28 25.65292 -80.19236 6351 ft 276 kts 190°
2026-05-05 22:28 25.63383 -80.19529 6939 ft 277 kts 190°
2026-05-05 22:28 25.61451 -80.19443 7329 ft 287 kts 162°
2026-05-05 22:28 25.59673 -80.18406 7776 ft 292 kts 151°
2026-05-05 22:29 25.57946 -80.17237 8317 ft 296 kts 151°
2026-05-05 22:29 25.56185 -80.16046 8946 ft 297 kts 152°
2026-05-05 22:29 25.54408 -80.14850 9523 ft 300 kts 152°
2026-05-05 22:29 25.52608 -80.13645 10051 ft 304 kts 152°
2026-05-05 22:30 25.50754 -80.12413 10308 ft 320 kts 153°
2026-05-05 22:30 25.48785 -80.11112 10454 ft 340 kts 152°
2026-05-05 22:30 25.46691 -80.09731 10642 ft 358 kts 152°
2026-05-05 22:30 25.44516 -80.08296 11091 ft 369 kts 152°
2026-05-05 22:31 25.42291 -80.06827 11651 ft 376 kts 152°
2026-05-05 22:31 25.40036 -80.05339 12372 ft 378 kts 152°
2026-05-05 22:31 25.37771 -80.03846 13170 ft 380 kts 153°
2026-05-05 22:31 25.35485 -80.02341 13885 ft 384 kts 153°
2026-05-05 22:32 25.33172 -80.00820 14487 ft 389 kts 153°
2026-05-05 22:32 25.30829 -79.99281 15095 ft 394 kts 153°
2026-05-05 22:32 25.28455 -79.97723 15729 ft 399 kts 153°
2026-05-05 22:32 25.26085 -79.96163 16349 ft 404 kts 152°
2026-05-05 22:33 25.23682 -79.94504 16968 ft 409 kts 151°
2026-05-05 22:33 25.21275 -79.92789 17601 ft 414 kts 150°
2026-05-05 22:33 25.18844 -79.91044 18234 ft 419 kts 150°
2026-05-05 22:33 25.16378 -79.89276 18797 ft 424 kts 151°
2026-05-05 22:34 25.13916 -79.87519 19359 ft 427 kts 151°
2026-05-05 22:34 25.11399 -79.85729 19927 ft 432 kts 151°
2026-05-05 22:34 25.08861 -79.83930 20496 ft 436 kts 151°
2026-05-05 22:34 25.06297 -79.82115 21077 ft 439 kts 152°
2026-05-05 22:35 25.03709 -79.80285 21668 ft 443 kts 152°
2026-05-05 22:35 25.01101 -79.78441 22227 ft 447 kts 152°
2026-05-05 22:35 24.98469 -79.76582 22768 ft 451 kts 152°
2026-05-05 22:35 24.95808 -79.74702 23315 ft 456 kts 152°
2026-05-05 22:36 24.93160 -79.72831 23794 ft 460 kts 152°
2026-05-05 22:36 24.90440 -79.70912 24260 ft 463 kts 152°
2026-05-05 22:36 24.87714 -79.68990 24733 ft 466 kts 152°
2026-05-05 22:36 24.84973 -79.67060 25198 ft 469 kts 152°
2026-05-05 22:37 24.82206 -79.65111 25649 ft 472 kts 152°
2026-05-05 22:37 24.79423 -79.63152 26077 ft 476 kts 152°
2026-05-05 22:37 24.76662 -79.61209 26500 ft 479 kts 152°
2026-05-05 22:37 24.73842 -79.59224 26923 ft 481 kts 152°
2026-05-05 22:38 24.70998 -79.57224 27329 ft 484 kts 152°
2026-05-05 22:38 24.68150 -79.55221 27722 ft 487 kts 152°
2026-05-05 22:38 24.65281 -79.53206 28106 ft 490 kts 152°
2026-05-05 22:38 24.63366 -79.51860 28352 ft 492 kts 152°
2026-05-05 22:39 24.59529 -79.49167 28835 ft 496 kts 152°
2026-05-05 22:39 24.56612 -79.47120 29163 ft 499 kts 152°
2026-05-05 22:39 24.53677 -79.45063 29478 ft 502 kts 152°
2026-05-05 22:39 24.50727 -79.42995 29806 ft 504 kts 152°
2026-05-05 22:40 24.47761 -79.40918 30132 ft 506 kts 152°
2026-05-05 22:40 24.44775 -79.38828 30404 ft 508 kts 152°
2026-05-05 22:40 24.41792 -79.36740 30662 ft 510 kts 152°
2026-05-05 22:40 24.38791 -79.34641 30949 ft 511 kts 152°
2026-05-05 22:41 24.35789 -79.32542 31187 ft 513 kts 152°
2026-05-05 22:41 24.32808 -79.30460 31405 ft 515 kts 153°
2026-05-05 22:41 24.30764 -79.29034 31555 ft 516 kts 153°
2026-05-05 22:41 24.27707 -79.26971 31747 ft 514 kts 157°
2026-05-05 22:42 24.23384 -79.24998 31974 ft 505 kts 169°
2026-05-05 22:42 24.19987 -79.24080 32211 ft 500 kts 175°
2026-05-05 22:42 24.16564 -79.23608 32485 ft 491 kts 182°
2026-05-05 22:42 24.14306 -79.23427 32671 ft 490 kts 182°
2026-05-05 22:43 24.10906 -79.23157 32932 ft 490 kts 182°
2026-05-05 22:43 24.04074 -79.22587 33013 ft 492 kts 182°
2026-05-05 22:43 24.00650 -79.22285 33171 ft 493 kts 181°
2026-05-05 22:44 23.97221 -79.21975 33442 ft 492 kts 181°
2026-05-05 22:44 23.93816 -79.21661 33741 ft 490 kts 181°
2026-05-05 22:44 23.90419 -79.21347 34006 ft 489 kts 181°
2026-05-05 22:44 23.87033 -79.21035 34241 ft 488 kts 181°
2026-05-05 22:45 23.83698 -79.20729 34454 ft 487 kts 181°
2026-05-05 22:45 23.80316 -79.20420 34632 ft 487 kts 181°
2026-05-05 22:45 23.76941 -79.20112 34817 ft 487 kts 181°
2026-05-05 22:45 23.73559 -79.19804 34934 ft 489 kts 181°
2026-05-05 22:46 23.70156 -79.19495 34968 ft 489 kts 181°
2026-05-05 22:46 23.63399 -79.18877 35009 ft 486 kts 181°
2026-05-05 22:47 23.56655 -79.18262 35013 ft 485 kts 181°
2026-05-05 22:47 23.49966 -79.17653 35013 ft 484 kts 181°
2026-05-05 22:48 23.43244 -79.17043 35018 ft 484 kts 181°
2026-05-05 22:48 23.36512 -79.16432 35011 ft 485 kts 181°
2026-05-05 22:49 23.29783 -79.15822 35016 ft 486 kts 181°
2026-05-05 22:49 23.23041 -79.15211 35011 ft 486 kts 181°
2026-05-05 22:50 23.16322 -79.14602 35018 ft 487 kts 181°
2026-05-05 22:50 23.09566 -79.13991 35017 ft 487 kts 181°
2026-05-05 22:51 23.02798 -79.13379 35018 ft 487 kts 180°
2026-05-05 22:51 22.96038 -79.12769 35014 ft 488 kts 180°
2026-05-05 22:52 22.89267 -79.12158 35017 ft 488 kts 180°
2026-05-05 22:52 22.82529 -79.11551 35019 ft 489 kts 180°
2026-05-05 22:53 22.75745 -79.10940 35017 ft 489 kts 181°
2026-05-05 22:53 22.68964 -79.10329 35020 ft 489 kts 181°
2026-05-05 22:54 22.62204 -79.09980 35023 ft 483 kts 187°
2026-05-05 22:54 22.55498 -79.10153 35028 ft 482 kts 187°
2026-05-05 22:55 22.48820 -79.10339 35025 ft 482 kts 187°
2026-05-05 22:55 22.42104 -79.10492 35027 ft 482 kts 187°
2026-05-05 22:56 22.35390 -79.10630 35029 ft 483 kts 187°
2026-05-05 22:56 22.28668 -79.10769 35026 ft 483 kts 187°
2026-05-05 22:57 22.21935 -79.10909 35028 ft 484 kts 187°
2026-05-05 22:57 22.15194 -79.11050 35028 ft 485 kts 187°
2026-05-05 22:58 22.08439 -79.11190 35026 ft 486 kts 187°
2026-05-05 22:58 22.01714 -79.11328 35021 ft 486 kts 187°
2026-05-05 22:59 21.94944 -79.11466 35020 ft 486 kts 187°
2026-05-05 22:59 21.88171 -79.11604 35015 ft 486 kts 188°
2026-05-05 23:00 21.78033 -79.11874 35013 ft 485 kts 188°
2026-05-05 23:00 21.71325 -79.12058 35015 ft 485 kts 188°
2026-05-05 23:01 21.64512 -79.12228 35022 ft 493 kts 188°
2026-05-05 23:01 21.57597 -79.12376 35017 ft 499 kts 188°
2026-05-05 23:02 21.50623 -79.12521 35012 ft 502 kts 188°
2026-05-05 23:02 21.43613 -79.12670 35016 ft 504 kts 188°
2026-05-05 23:03 21.36601 -79.12822 35012 ft 504 kts 188°
2026-05-05 23:03 21.29582 -79.12974 35007 ft 504 kts 187°
2026-05-05 23:04 21.22602 -79.13126 35014 ft 504 kts 187°
2026-05-05 23:04 21.15594 -79.13279 35007 ft 503 kts 187°
2026-05-05 23:05 21.08593 -79.13433 35012 ft 503 kts 187°
2026-05-05 23:05 21.01593 -79.13587 35012 ft 502 kts 187°
2026-05-05 23:06 20.94598 -79.13741 35009 ft 502 kts 187°
2026-05-05 23:06 20.87605 -79.13894 35009 ft 503 kts 187°
2026-05-05 23:07 20.80607 -79.14047 35005 ft 503 kts 187°
2026-05-05 23:07 20.73646 -79.14200 35009 ft 503 kts 187°
2026-05-05 23:08 20.66624 -79.14353 35014 ft 504 kts 187°
2026-05-05 23:08 20.59592 -79.14506 35009 ft 505 kts 187°
2026-05-05 23:09 20.52556 -79.14660 35007 ft 506 kts 187°
2026-05-05 23:09 20.45558 -79.14812 35006 ft 506 kts 187°
2026-05-05 23:10 20.38507 -79.14965 35001 ft 507 kts 187°
2026-05-05 23:10 20.31442 -79.15119 35002 ft 508 kts 186°
2026-05-05 23:11 20.24352 -79.15273 35000 ft 508 kts 186°
2026-05-05 23:11 20.17312 -79.15425 34999 ft 509 kts 186°
2026-05-05 23:12 20.10215 -79.15579 35002 ft 509 kts 186°
2026-05-05 23:12 20.03118 -79.15733 34998 ft 510 kts 186°
2026-05-05 23:13 19.96017 -79.15909 35003 ft 510 kts 187°
2026-05-05 23:13 19.88923 -79.16162 35001 ft 510 kts 187°
2026-05-05 23:14 19.81859 -79.16427 35002 ft 510 kts 187°
2026-05-05 23:14 19.74746 -79.16684 35002 ft 511 kts 187°
2026-05-05 23:15 19.67634 -79.16932 35005 ft 511 kts 186°
2026-05-05 23:15 19.60559 -79.17178 35005 ft 512 kts 186°
2026-05-05 23:16 19.53438 -79.17425 35003 ft 512 kts 186°
2026-05-05 23:16 19.46308 -79.17673 35002 ft 513 kts 186°
2026-05-05 23:17 19.39166 -79.17921 34995 ft 513 kts 186°
2026-05-05 23:17 19.32014 -79.18169 34997 ft 513 kts 186°
2026-05-05 23:18 19.24921 -79.18415 34997 ft 513 kts 186°
2026-05-05 23:18 19.17765 -79.18663 34998 ft 514 kts 186°
2026-05-05 23:19 19.10610 -79.18911 34997 ft 514 kts 186°
2026-05-05 23:19 19.03459 -79.19158 34997 ft 515 kts 186°
2026-05-05 23:20 18.96301 -79.19406 35001 ft 515 kts 186°
2026-05-05 23:20 18.89169 -79.19652 35000 ft 515 kts 186°
2026-05-05 23:21 18.81976 -79.19900 35000 ft 516 kts 186°
2026-05-05 23:21 18.74787 -79.20148 34997 ft 516 kts 186°
2026-05-05 23:22 18.67635 -79.20394 35001 ft 517 kts 186°
2026-05-05 23:22 18.60445 -79.20642 35001 ft 517 kts 185°
2026-05-05 23:23 18.53233 -79.20890 35002 ft 518 kts 185°
2026-05-05 23:23 18.46020 -79.21138 34999 ft 518 kts 185°
2026-05-05 23:24 18.38837 -79.21384 34998 ft 518 kts 185°
2026-05-05 23:24 18.31597 -79.21632 34995 ft 519 kts 185°
2026-05-05 23:25 18.24376 -79.21880 34997 ft 519 kts 185°
2026-05-05 23:25 18.17147 -79.22127 34994 ft 519 kts 185°
2026-05-05 23:26 18.09954 -79.22375 34996 ft 523 kts 183°
2026-05-05 23:26 18.02626 -79.22627 35005 ft 530 kts 183°
2026-05-05 23:27 17.95214 -79.22879 35005 ft 535 kts 183°
2026-05-05 23:27 17.87755 -79.23133 34992 ft 537 kts 183°
2026-05-05 23:28 17.80315 -79.23386 34994 ft 538 kts 183°
2026-05-05 23:28 17.72832 -79.23640 34991 ft 538 kts 183°
2026-05-05 23:29 17.65352 -79.23895 34990 ft 537 kts 183°
2026-05-05 23:29 17.57892 -79.24149 34987 ft 535 kts 183°
2026-05-05 23:30 17.51709 -79.24359 34990 ft 534 kts 183°
2026-05-05 23:30 17.43075 -79.24652 34980 ft 532 kts 183°
2026-05-05 23:31 17.36869 -79.24863 34982 ft 532 kts 183°
2026-05-05 23:31 17.29473 -79.25113 34983 ft 531 kts 183°
2026-05-05 23:32 17.22119 -79.25363 34983 ft 531 kts 183°
2026-05-05 23:32 17.14728 -79.25613 34980 ft 531 kts 183°
2026-05-05 23:33 17.07345 -79.25863 34981 ft 531 kts 183°
2026-05-05 23:33 17.00001 -79.26111 34978 ft 531 kts 183°
2026-05-05 23:34 16.92620 -79.26360 34977 ft 531 kts 183°
2026-05-05 23:34 16.85217 -79.26610 34977 ft 531 kts 183°
2026-05-05 23:35 16.77871 -79.26858 34978 ft 531 kts 183°
2026-05-05 23:35 16.70481 -79.27107 34977 ft 531 kts 183°
2026-05-05 23:36 16.63096 -79.27356 34974 ft 531 kts 183°
2026-05-05 23:36 16.55703 -79.27604 34975 ft 531 kts 183°
2026-05-05 23:37 16.48314 -79.27853 34972 ft 531 kts 183°
2026-05-05 23:37 16.40961 -79.28100 34972 ft 530 kts 183°
2026-05-05 23:38 16.33577 -79.28348 34973 ft 530 kts 183°
2026-05-05 23:38 16.26202 -79.28595 34974 ft 530 kts 183°
2026-05-05 23:39 16.18823 -79.28842 34970 ft 529 kts 183°
2026-05-05 23:39 16.11448 -79.29089 34970 ft 529 kts 183°
2026-05-05 23:40 16.04134 -79.29334 34967 ft 529 kts 183°
2026-05-05 23:40 15.96777 -79.29580 34963 ft 528 kts 183°
2026-05-05 23:41 15.89431 -79.29826 34966 ft 528 kts 183°
2026-05-05 23:41 15.82096 -79.30071 34961 ft 527 kts 183°
2026-05-05 23:42 15.74790 -79.30314 34961 ft 527 kts 183°
2026-05-05 23:42 15.67452 -79.30559 34958 ft 526 kts 183°
2026-05-05 23:43 15.60127 -79.30803 34958 ft 526 kts 182°
2026-05-05 23:43 15.52806 -79.31047 34959 ft 526 kts 182°
2026-05-05 23:44 15.45530 -79.31289 34953 ft 526 kts 182°
2026-05-05 23:44 15.38218 -79.31532 34957 ft 525 kts 182°
2026-05-05 23:45 15.30912 -79.31775 34952 ft 525 kts 182°
2026-05-05 23:45 15.23609 -79.32018 34953 ft 524 kts 182°
2026-05-05 23:46 15.16313 -79.32259 34953 ft 524 kts 182°
2026-05-05 23:46 15.09018 -79.32501 34949 ft 524 kts 182°
2026-05-05 23:47 15.01768 -79.32742 34952 ft 524 kts 182°
2026-05-05 23:47 14.94473 -79.33002 34949 ft 524 kts 182°
2026-05-05 23:48 14.87179 -79.33295 34946 ft 524 kts 183°
2026-05-05 23:48 14.79885 -79.33590 34953 ft 524 kts 183°
2026-05-05 23:49 14.72594 -79.33880 34947 ft 524 kts 183°
2026-05-05 23:49 14.65309 -79.34166 34947 ft 524 kts 182°
2026-05-05 23:50 14.58020 -79.34452 34948 ft 524 kts 182°
2026-05-05 23:50 14.50731 -79.34738 34945 ft 524 kts 182°
2026-05-05 23:51 14.43492 -79.35022 34946 ft 524 kts 183°
2026-05-05 23:51 14.36190 -79.35309 34945 ft 524 kts 182°
2026-05-05 23:52 14.28909 -79.35594 34946 ft 523 kts 182°
2026-05-05 23:52 14.21630 -79.35879 34942 ft 523 kts 182°
2026-05-05 23:53 14.14348 -79.36164 34941 ft 523 kts 182°
2026-05-05 23:53 14.07118 -79.36446 34935 ft 523 kts 183°
2026-05-05 23:54 13.99844 -79.36728 34940 ft 523 kts 182°
2026-05-05 23:54 13.92563 -79.37014 34940 ft 523 kts 183°
2026-05-05 23:55 13.85290 -79.37299 34940 ft 522 kts 183°
2026-05-05 23:55 13.78072 -79.37581 34937 ft 521 kts 183°
2026-05-05 23:56 13.70816 -79.37862 34936 ft 520 kts 183°
2026-05-05 23:56 13.63616 -79.38142 34937 ft 519 kts 183°
2026-05-05 23:57 13.56385 -79.38424 34930 ft 519 kts 183°
2026-05-05 23:57 13.49174 -79.38705 34930 ft 518 kts 183°
2026-05-05 23:58 13.41970 -79.38984 34927 ft 517 kts 183°
2026-05-05 23:58 13.34824 -79.39262 34932 ft 516 kts 183°
2026-05-05 23:59 13.27601 -79.39543 34933 ft 516 kts 184°
2026-05-05 23:59 13.20467 -79.39820 34927 ft 515 kts 184°
2026-05-06 00:00 13.13299 -79.40098 34925 ft 515 kts 184°
2026-05-06 00:00 13.06124 -79.40375 34928 ft 514 kts 183°
2026-05-06 00:01 12.99017 -79.40650 34926 ft 514 kts 184°
2026-05-06 00:01 12.91881 -79.40928 34923 ft 513 kts 184°
2026-05-06 00:02 12.84740 -79.41205 34925 ft 512 kts 183°
2026-05-06 00:02 12.77620 -79.41478 34926 ft 512 kts 184°
2026-05-06 00:03 12.70530 -79.41752 34925 ft 511 kts 184°
2026-05-06 00:03 12.63419 -79.42028 34925 ft 511 kts 184°
2026-05-06 00:04 12.56304 -79.42302 34921 ft 511 kts 184°
2026-05-06 00:04 12.49190 -79.42577 34923 ft 510 kts 183°
2026-05-06 00:05 12.38581 -79.42986 34923 ft 510 kts 184°
2026-05-06 00:06 12.31480 -79.43259 34918 ft 510 kts 183°
2026-05-06 00:06 12.24380 -79.43532 34915 ft 510 kts 184°
2026-05-06 00:07 12.17285 -79.43806 34921 ft 510 kts 183°
2026-05-06 00:07 12.10229 -79.44078 34918 ft 510 kts 183°
2026-05-06 00:08 12.03135 -79.44351 34913 ft 510 kts 183°
2026-05-06 00:08 11.96032 -79.44623 34914 ft 510 kts 183°
2026-05-06 00:09 11.88908 -79.44897 34913 ft 511 kts 183°
2026-05-06 00:09 11.81834 -79.45168 34919 ft 511 kts 183°
2026-05-06 00:10 11.74723 -79.45442 34918 ft 511 kts 183°
2026-05-06 00:10 11.67610 -79.45715 34912 ft 511 kts 184°
2026-05-06 00:11 11.60495 -79.45988 34913 ft 511 kts 183°
2026-05-06 00:11 11.53409 -79.46260 34910 ft 511 kts 183°
2026-05-06 00:12 11.46290 -79.46533 34916 ft 512 kts 183°
2026-05-06 00:12 11.39200 -79.46805 34913 ft 512 kts 183°
2026-05-06 00:13 11.32072 -79.47076 34913 ft 512 kts 183°
2026-05-06 00:13 11.24938 -79.47348 34906 ft 512 kts 183°
2026-05-06 00:14 11.17808 -79.47621 34912 ft 512 kts 183°
2026-05-06 00:14 11.10713 -79.47893 34911 ft 513 kts 183°
2026-05-06 00:15 11.03574 -79.48166 34912 ft 513 kts 183°
2026-05-06 00:15 10.96435 -79.48438 34911 ft 513 kts 183°
2026-05-06 00:16 10.89338 -79.48708 34914 ft 513 kts 183°
2026-05-06 00:16 10.82192 -79.48981 34902 ft 513 kts 183°
2026-05-06 00:17 10.75043 -79.49253 34904 ft 514 kts 182°
2026-05-06 00:17 10.67892 -79.49526 34902 ft 514 kts 182°
2026-05-06 00:18 10.60736 -79.49798 34906 ft 514 kts 182°
2026-05-06 00:18 10.53623 -79.50068 34911 ft 514 kts 182°
2026-05-06 00:19 10.47629 -79.50289 34909 ft 514 kts 182°
2026-05-06 00:19 10.40521 -79.50537 34909 ft 514 kts 182°
2026-05-06 00:20 10.33352 -79.50786 34904 ft 514 kts 182°
2026-05-06 00:20 10.26192 -79.51037 34904 ft 514 kts 182°
2026-05-06 00:21 10.19032 -79.51288 34903 ft 514 kts 182°
2026-05-06 00:21 10.11905 -79.51539 34912 ft 515 kts 182°
2026-05-06 00:22 10.04738 -79.51791 34915 ft 515 kts 182°
2026-05-06 00:22 9.97567 -79.52044 34908 ft 515 kts 182°
2026-05-06 00:23 9.90436 -79.52294 34906 ft 516 kts 182°
2026-05-06 00:23 9.83252 -79.52546 34909 ft 516 kts 182°
2026-05-06 00:24 9.76058 -79.52798 34903 ft 517 kts 182°
2026-05-06 00:24 9.68857 -79.53051 34901 ft 517 kts 182°
2026-05-06 00:25 9.61695 -79.53302 34899 ft 517 kts 182°
2026-05-06 00:25 9.54481 -79.53554 34899 ft 517 kts 182°
2026-05-06 00:26 9.47282 -79.53807 34897 ft 518 kts 182°
2026-05-06 00:26 9.40077 -79.54059 34891 ft 518 kts 182°
2026-05-06 00:27 9.32969 -79.54307 34894 ft 517 kts 182°
2026-05-06 00:27 9.25770 -79.54559 34890 ft 517 kts 182°
2026-05-06 00:28 9.18574 -79.54811 34885 ft 516 kts 182°
2026-05-06 00:28 9.11390 -79.55062 34889 ft 516 kts 182°
2026-05-06 00:29 9.04211 -79.55313 34884 ft 515 kts 182°
2026-05-06 00:29 8.97090 -79.55561 34883 ft 515 kts 182°
2026-05-06 00:30 8.89928 -79.55811 34857 ft 514 kts 181°
2026-05-06 00:30 8.82770 -79.56061 34860 ft 514 kts 181°
2026-05-06 00:31 8.75625 -79.56305 34868 ft 514 kts 181°
2026-05-06 00:31 8.68468 -79.56519 34866 ft 513 kts 181°
2026-05-06 00:32 8.61331 -79.56726 34876 ft 513 kts 181°
2026-05-06 00:32 8.54228 -79.56935 34880 ft 513 kts 181°
2026-05-06 00:33 8.47094 -79.57148 34888 ft 512 kts 181°
2026-05-06 00:33 8.39950 -79.57363 34888 ft 512 kts 181°
2026-05-06 00:34 8.32820 -79.57576 34890 ft 512 kts 181°
2026-05-06 00:34 8.25693 -79.57789 34896 ft 512 kts 181°
2026-05-06 00:35 8.18606 -79.58001 34893 ft 512 kts 181°
2026-05-06 00:35 8.11481 -79.58214 34895 ft 512 kts 181°
2026-05-06 00:36 8.04349 -79.58427 34891 ft 512 kts 181°
2026-05-06 00:36 7.97220 -79.58640 34896 ft 512 kts 181°